N5NC KLVS-KDEN

Flight info

Callsign N5NC
Flight time 1h 9m
Altitude 35000
Route CIM TBE J171 TODDE QUAIL1
Aircraft C525/L-SDFGRWYZ/LB1

Departure

Time 2026-04-22 16:18
Airport Las Vegas Municipal Airport (KLVS)

Arrival

Time 2026-04-22 17:27
Airport Denver International Airport (KDEN)
Time Latitude Longitude Altitude Speed Heading
2026-04-22 16:08 35.65201 -105.14707 6858 ft 0 kts
2026-04-22 16:14 35.65202 -105.14707 6858 ft 0 kts
2026-04-22 16:14 35.65216 -105.14688 6858 ft 6 kts 78°
2026-04-22 16:15 35.65201 -105.14655 6858 ft 4 kts 94°
2026-04-22 16:15 35.65175 -105.14545 6860 ft 15 kts 108°
2026-04-22 16:15 35.65258 -105.14458 6860 ft 26 kts 33°
2026-04-22 16:15 35.65445 -105.14297 6858 ft 35 kts 36°
2026-04-22 16:16 35.65644 -105.14127 6856 ft 35 kts 35°
2026-04-22 16:16 35.65842 -105.13959 6856 ft 33 kts 34°
2026-04-22 16:16 35.65973 -105.13820 6856 ft 11 kts 123°
2026-04-22 16:16 35.65924 -105.13804 6857 ft 0 kts 218°
2026-04-22 16:17 35.65893 -105.13831 6857 ft 25 kts 216°
2026-04-22 16:17 35.65596 -105.14085 6856 ft 76 kts 214°
2026-04-22 16:17 35.65042 -105.14558 6865 ft 114 kts 217°
2026-04-22 16:17 35.64368 -105.15122 7112 ft 121 kts 216°
2026-04-22 16:18 35.63612 -105.15679 7308 ft 139 kts 201°
2026-04-22 16:18 35.62604 -105.15570 7585 ft 161 kts 154°
2026-04-22 16:18 35.61872 -105.14451 7858 ft 182 kts 109°
2026-04-22 16:18 35.61904 -105.12923 8237 ft 184 kts 67°
2026-04-22 16:19 35.62679 -105.11729 8662 ft 179 kts 31°
2026-04-22 16:19 35.63825 -105.11218 9036 ft 173 kts 358°
2026-04-22 16:19 35.65024 -105.11332 9346 ft 177 kts 346°
2026-04-22 16:19 35.66262 -105.11567 9674 ft 183 kts 345°
2026-04-22 16:20 35.67487 -105.11832 10145 ft 179 kts 344°
2026-04-22 16:20 35.68706 -105.12089 10596 ft 176 kts 347°
2026-04-22 16:20 35.69932 -105.12088 11046 ft 176 kts 359°
2026-04-22 16:20 35.71151 -105.11912 11407 ft 180 kts
2026-04-22 16:21 35.72421 -105.11653 11653 ft 191 kts
2026-04-22 16:21 35.73779 -105.11324 11903 ft 203 kts
2026-04-22 16:21 35.75178 -105.10950 12203 ft 210 kts
2026-04-22 16:21 35.76631 -105.10536 12501 ft 218 kts
2026-04-22 16:22 35.79687 -105.09620 13098 ft 234 kts 10°
2026-04-22 16:22 35.81284 -105.09127 13392 ft 242 kts 10°
2026-04-22 16:22 35.82949 -105.08606 13688 ft 249 kts 11°
2026-04-22 16:23 35.86396 -105.07516 14278 ft 262 kts 11°
2026-04-22 16:23 35.88170 -105.06950 14569 ft 267 kts 11°
2026-04-22 16:23 35.90013 -105.06361 14865 ft 273 kts 11°
2026-04-22 16:24 35.91868 -105.05768 15148 ft 278 kts 11°
2026-04-22 16:24 35.95672 -105.04546 15745 ft 287 kts 10°
2026-04-22 16:24 35.97598 -105.03925 16199 ft 285 kts 10°
2026-04-22 16:25 35.99503 -105.03309 16671 ft 282 kts 10°
2026-04-22 16:25 36.03239 -105.02102 17624 ft 275 kts 10°
2026-04-22 16:25 36.05100 -105.01500 18107 ft 271 kts
2026-04-22 16:26 36.06908 -105.00916 18468 ft 273 kts
2026-04-22 16:26 36.08743 -105.00324 18839 ft 273 kts 10°
2026-04-22 16:26 36.10607 -104.99723 19213 ft 274 kts 10°
2026-04-22 16:26 36.12441 -104.99130 19579 ft 274 kts
2026-04-22 16:27 36.14281 -104.98535 19950 ft 274 kts
2026-04-22 16:27 36.16135 -104.97935 20325 ft 273 kts
2026-04-22 16:27 36.17970 -104.97341 20632 ft 276 kts
2026-04-22 16:27 36.19847 -104.96735 20890 ft 280 kts
2026-04-22 16:28 36.21751 -104.96120 21149 ft 285 kts
2026-04-22 16:28 36.23674 -104.95497 21408 ft 289 kts 10°
2026-04-22 16:28 36.25612 -104.94869 21664 ft 292 kts 10°
2026-04-22 16:28 36.27609 -104.94222 21926 ft 296 kts 10°
2026-04-22 16:29 36.29608 -104.93572 22185 ft 299 kts 10°
2026-04-22 16:29 36.31625 -104.92916 22445 ft 302 kts 10°
2026-04-22 16:29 36.33656 -104.92255 22701 ft 304 kts 10°
2026-04-22 16:29 36.35719 -104.91585 22965 ft 306 kts 10°
2026-04-22 16:30 36.37082 -104.91140 23213 ft 305 kts 10°
2026-04-22 16:30 36.39811 -104.90249 23730 ft 301 kts 10°
2026-04-22 16:30 36.41836 -104.89587 24129 ft 299 kts 10°
2026-04-22 16:30 36.43807 -104.88944 24596 ft 293 kts 10°
2026-04-22 16:31 36.45754 -104.88306 25054 ft 288 kts
2026-04-22 16:31 36.47682 -104.87656 25507 ft 284 kts 13°
2026-04-22 16:31 36.49352 -104.86391 25906 ft 287 kts 40°
2026-04-22 16:31 36.50709 -104.84560 26161 ft 291 kts 48°
2026-04-22 16:32 36.51982 -104.82575 26421 ft 293 kts 51°
2026-04-22 16:32 36.53229 -104.80570 26683 ft 295 kts 51°
2026-04-22 16:32 36.54487 -104.78549 26943 ft 297 kts 51°
2026-04-22 16:32 36.55741 -104.76527 27203 ft 298 kts 51°
2026-04-22 16:33 36.57000 -104.74467 27466 ft 300 kts 51°
2026-04-22 16:33 36.58267 -104.72381 27729 ft 301 kts 52°
2026-04-22 16:33 36.59522 -104.70316 27986 ft 303 kts 52°
2026-04-22 16:33 36.60801 -104.68213 28251 ft 304 kts 51°
2026-04-22 16:34 36.62071 -104.66126 28507 ft 305 kts 51°
2026-04-22 16:34 36.63344 -104.64037 28764 ft 306 kts 51°
2026-04-22 16:34 36.64635 -104.61916 29028 ft 306 kts 51°
2026-04-22 16:34 36.65916 -104.59811 29286 ft 307 kts 52°
2026-04-22 16:35 36.67208 -104.57690 29551 ft 308 kts 51°
2026-04-22 16:35 36.68520 -104.55534 29815 ft 310 kts 51°
2026-04-22 16:35 36.69821 -104.53395 30079 ft 311 kts 52°
2026-04-22 16:35 36.71117 -104.51265 30336 ft 311 kts 51°
2026-04-22 16:36 36.72429 -104.49107 30601 ft 312 kts 52°
2026-04-22 16:36 36.73747 -104.46936 30859 ft 313 kts 52°
2026-04-22 16:36 36.75042 -104.44803 31113 ft 313 kts 52°
2026-04-22 16:36 36.76364 -104.42625 31382 ft 313 kts 52°
2026-04-22 16:37 36.77680 -104.40454 31641 ft 313 kts 52°
2026-04-22 16:37 36.78985 -104.38300 31898 ft 313 kts 52°
2026-04-22 16:37 36.80290 -104.36145 32157 ft 313 kts 52°
2026-04-22 16:37 36.81602 -104.33978 32420 ft 312 kts 53°
2026-04-22 16:38 36.82920 -104.31798 32664 ft 312 kts 53°
2026-04-22 16:38 36.84229 -104.29631 32871 ft 313 kts 53°
2026-04-22 16:38 36.85540 -104.27461 33076 ft 314 kts 53°
2026-04-22 16:38 36.86865 -104.25266 33287 ft 314 kts 53°
2026-04-22 16:39 36.88162 -104.23116 33490 ft 315 kts 53°
2026-04-22 16:39 36.89482 -104.20926 33650 ft 317 kts 53°
2026-04-22 16:39 36.90821 -104.18704 33790 ft 320 kts 53°
2026-04-22 16:39 36.92153 -104.16492 33918 ft 323 kts 54°
2026-04-22 16:40 36.93523 -104.14215 34075 ft 326 kts 54°
2026-04-22 16:40 36.94877 -104.11961 34224 ft 329 kts 54°
2026-04-22 16:40 36.97648 -104.07349 34513 ft 334 kts 54°
2026-04-22 16:41 36.99039 -104.05032 34666 ft 337 kts 54°
2026-04-22 16:41 37.00458 -104.02666 34818 ft 339 kts 54°
2026-04-22 16:41 37.01873 -104.00304 34978 ft 342 kts 54°
2026-04-22 16:41 37.03301 -103.97920 35128 ft 344 kts 54°
2026-04-22 16:42 37.04739 -103.95515 35150 ft 350 kts 54°
2026-04-22 16:42 37.07696 -103.90568 35142 ft 362 kts 54°
2026-04-22 16:43 37.10772 -103.85415 35142 ft 373 kts 54°
2026-04-22 16:43 37.13916 -103.80138 35138 ft 382 kts 54°
2026-04-22 16:44 37.17113 -103.74766 35124 ft 389 kts 54°
2026-04-22 16:44 37.20361 -103.69294 35112 ft 396 kts 54°
2026-04-22 16:45 37.22954 -103.63221 35126 ft 399 kts 67°
2026-04-22 16:45 37.25196 -103.56816 35117 ft 404 kts 68°
2026-04-22 16:46 37.27428 -103.50334 35112 ft 408 kts 68°
2026-04-22 16:46 37.29681 -103.43768 35103 ft 412 kts 68°
2026-04-22 16:47 37.31949 -103.37143 35089 ft 416 kts 68°
2026-04-22 16:47 37.34230 -103.30461 35081 ft 418 kts 69°
2026-04-22 16:48 37.36520 -103.23740 35077 ft 420 kts 69°
2026-04-22 16:48 37.38814 -103.16992 35071 ft 421 kts 69°
2026-04-22 16:49 37.41101 -103.10246 35052 ft 423 kts 69°
2026-04-22 16:49 37.43401 -103.03449 35045 ft 423 kts 68°
2026-04-22 16:50 37.45959 -102.96839 35036 ft 424 kts 57°
2026-04-22 16:50 37.50006 -102.91446 35022 ft 423 kts 37°
2026-04-22 16:50 37.52490 -102.89475 35017 ft 422 kts 26°
2026-04-22 16:51 37.55203 -102.88052 35010 ft 420 kts 16°
2026-04-22 16:51 37.60899 -102.87029 35003 ft 413 kts 355°
2026-04-22 16:52 37.66507 -102.88051 35003 ft 408 kts 343°
2026-04-22 16:52 37.71972 -102.89949 34837 ft 409 kts 339°
2026-04-22 16:52 37.74712 -102.91097 34688 ft 412 kts 337°
2026-04-22 16:53 37.77391 -102.92305 34547 ft 413 kts 336°
2026-04-22 16:53 37.80085 -102.93582 34402 ft 415 kts 335°
2026-04-22 16:53 37.82786 -102.94910 34257 ft 416 kts 334°
2026-04-22 16:53 37.85462 -102.96262 34113 ft 417 kts 334°
2026-04-22 16:54 37.88154 -102.97645 33964 ft 416 kts 334°
2026-04-22 16:54 37.90829 -102.99040 33817 ft 415 kts 334°
2026-04-22 16:54 37.93486 -103.00439 33684 ft 414 kts 333°
2026-04-22 16:54 37.96128 -103.01841 33558 ft 413 kts 333°
2026-04-22 16:55 37.98774 -103.03253 33424 ft 413 kts 333°
2026-04-22 16:55 38.01422 -103.04673 33292 ft 412 kts 333°
2026-04-22 16:55 38.04046 -103.06085 33165 ft 412 kts 333°
2026-04-22 16:55 38.06659 -103.07495 33034 ft 411 kts 333°
2026-04-22 16:56 38.09291 -103.08918 32908 ft 411 kts 333°
2026-04-22 16:56 38.11954 -103.10362 32781 ft 410 kts 333°
2026-04-22 16:56 38.14548 -103.11769 32652 ft 410 kts 333°
2026-04-22 16:56 38.17168 -103.13193 32520 ft 409 kts 333°
2026-04-22 16:57 38.19809 -103.14630 32395 ft 409 kts 333°
2026-04-22 16:57 38.22397 -103.16039 32266 ft 409 kts 333°
2026-04-22 16:57 38.25000 -103.17459 32137 ft 408 kts 333°
2026-04-22 16:57 38.27611 -103.18883 32006 ft 408 kts 333°
2026-04-22 16:58 38.30223 -103.20310 31881 ft 408 kts 333°
2026-04-22 16:58 38.32828 -103.21735 31755 ft 408 kts 333°
2026-04-22 16:58 38.35448 -103.23169 31621 ft 408 kts 333°
2026-04-22 16:58 38.38043 -103.24590 31495 ft 408 kts 333°
2026-04-22 16:59 38.40617 -103.26006 31366 ft 407 kts 332°
2026-04-22 16:59 38.43244 -103.27457 31242 ft 407 kts 332°
2026-04-22 16:59 38.45840 -103.28893 31099 ft 408 kts 332°
2026-04-22 16:59 38.48431 -103.30328 30894 ft 409 kts 332°
2026-04-22 17:00 38.51022 -103.31763 30691 ft 409 kts 332°
2026-04-22 17:00 38.56255 -103.34666 30282 ft 410 kts 332°
2026-04-22 17:00 38.58866 -103.36115 30080 ft 410 kts 332°
2026-04-22 17:01 38.61469 -103.37562 29878 ft 410 kts 332°
2026-04-22 17:01 38.64075 -103.39011 29670 ft 408 kts 332°
2026-04-22 17:01 38.66682 -103.40460 29459 ft 407 kts 332°
2026-04-22 17:01 38.69282 -103.41908 29196 ft 405 kts 332°
2026-04-22 17:02 38.71833 -103.43329 28948 ft 403 kts 332°
2026-04-22 17:02 38.74416 -103.44769 28689 ft 401 kts 332°
2026-04-22 17:02 38.76971 -103.46195 28434 ft 400 kts 332°
2026-04-22 17:02 38.79500 -103.47626 28177 ft 397 kts 330°
2026-04-22 17:03 38.81733 -103.49603 27909 ft 386 kts 313°
2026-04-22 17:03 38.83628 -103.52003 27596 ft 381 kts 309°
2026-04-22 17:03 38.85409 -103.54454 27293 ft 377 kts 307°
2026-04-22 17:03 38.87173 -103.56937 26972 ft 375 kts 307°
2026-04-22 17:04 38.88913 -103.59404 26643 ft 373 kts 307°
2026-04-22 17:04 38.90627 -103.61836 26318 ft 371 kts 307°
2026-04-22 17:04 38.92361 -103.64300 25984 ft 369 kts 307°
2026-04-22 17:04 38.94084 -103.66749 25649 ft 368 kts 307°
2026-04-22 17:05 38.95782 -103.69164 25325 ft 367 kts 306°
2026-04-22 17:05 38.97489 -103.71593 24993 ft 366 kts 306°
2026-04-22 17:05 38.99194 -103.74020 24660 ft 365 kts 307°
2026-04-22 17:05 39.00884 -103.76428 24312 ft 364 kts 307°
2026-04-22 17:06 39.02583 -103.78851 23990 ft 362 kts 306°
2026-04-22 17:06 39.04250 -103.81228 23700 ft 360 kts 307°
2026-04-22 17:06 39.05928 -103.83623 23400 ft 358 kts 307°
2026-04-22 17:06 39.07578 -103.85980 23112 ft 357 kts 307°
2026-04-22 17:07 39.09244 -103.88361 22813 ft 355 kts 307°
2026-04-22 17:07 39.10882 -103.90706 22528 ft 354 kts 307°
2026-04-22 17:07 39.12536 -103.93073 22263 ft 352 kts 307°
2026-04-22 17:07 39.14163 -103.95422 21997 ft 349 kts 306°
2026-04-22 17:08 39.15741 -103.97709 21693 ft 345 kts 306°
2026-04-22 17:08 39.17342 -104.00035 21376 ft 343 kts 306°
2026-04-22 17:08 39.18907 -104.02312 21061 ft 341 kts 307°
2026-04-22 17:08 39.20470 -104.04587 20714 ft 339 kts 307°
2026-04-22 17:09 39.22026 -104.06853 20411 ft 338 kts 307°
2026-04-22 17:09 39.23575 -104.09110 20095 ft 337 kts 306°
2026-04-22 17:09 39.25120 -104.11363 19820 ft 335 kts 307°
2026-04-22 17:09 39.26675 -104.13631 19556 ft 335 kts 306°
2026-04-22 17:10 39.28223 -104.15892 19303 ft 335 kts 306°
2026-04-22 17:10 39.29791 -104.18120 19041 ft 338 kts 311°
2026-04-22 17:10 39.31743 -104.19836 18803 ft 343 kts 326°
2026-04-22 17:10 39.33791 -104.21405 18537 ft 340 kts 324°
2026-04-22 17:11 39.35826 -104.22938 18288 ft 338 kts 325°
2026-04-22 17:11 39.37848 -104.24458 18032 ft 336 kts 325°
2026-04-22 17:11 39.39847 -104.25959 17780 ft 334 kts 325°
2026-04-22 17:11 39.41851 -104.27463 17534 ft 332 kts 325°
2026-04-22 17:12 39.43840 -104.28957 17287 ft 331 kts 325°
2026-04-22 17:12 39.45834 -104.30454 17038 ft 329 kts 325°
2026-04-22 17:12 39.47813 -104.31934 16789 ft 328 kts 326°
2026-04-22 17:12 39.49832 -104.33277 16542 ft 329 kts 328°
2026-04-22 17:13 39.51877 -104.34583 16299 ft 328 kts 329°
2026-04-22 17:13 39.53946 -104.35892 16064 ft 327 kts 329°
2026-04-22 17:13 39.55994 -104.37191 15814 ft 327 kts 329°
2026-04-22 17:13 39.58014 -104.38477 15602 ft 326 kts 329°
2026-04-22 17:14 39.60066 -104.39787 15363 ft 326 kts 329°
2026-04-22 17:14 39.62074 -104.41071 15115 ft 325 kts 329°
2026-04-22 17:14 39.64110 -104.42377 14867 ft 323 kts 329°
2026-04-22 17:14 39.66105 -104.43658 14625 ft 322 kts 329°
2026-04-22 17:15 39.67455 -104.44526 14462 ft 321 kts 329°
2026-04-22 17:15 39.70111 -104.46236 14137 ft 319 kts 329°
2026-04-22 17:15 39.72084 -104.47506 13908 ft 318 kts 330°
2026-04-22 17:15 39.74154 -104.48579 13696 ft 320 kts 340°
2026-04-22 17:16 39.76291 -104.49372 13499 ft 320 kts 341°
2026-04-22 17:16 39.78448 -104.50119 13268 ft 324 kts 342°
2026-04-22 17:16 39.80581 -104.50845 13032 ft 311 kts 342°
2026-04-22 17:16 39.82638 -104.51543 12776 ft 296 kts 341°
2026-04-22 17:17 39.84567 -104.52154 12520 ft 283 kts 347°
2026-04-22 17:17 39.86510 -104.52302 12276 ft 272 kts 356°
2026-04-22 17:17 39.88374 -104.52302 12033 ft 267 kts 357°
2026-04-22 17:17 39.90217 -104.52271 11792 ft 264 kts 358°
2026-04-22 17:18 39.92061 -104.52237 11555 ft 263 kts 358°
2026-04-22 17:18 39.93894 -104.52205 11254 ft 265 kts 358°
2026-04-22 17:18 39.95727 -104.52160 10951 ft 266 kts 358°
2026-04-22 17:18 39.97590 -104.52112 10652 ft 268 kts 359°
2026-04-22 17:19 40.01324 -104.52027 10132 ft 266 kts 358°
2026-04-22 17:19 40.04974 -104.51927 9642 ft 258 kts 359°
2026-04-22 17:20 40.07948 -104.53650 9141 ft 234 kts 297°
2026-04-22 17:20 40.07880 -104.57270 9172 ft 197 kts 245°
2026-04-22 17:21 40.07194 -104.58791 8995 ft 194 kts 231°
2026-04-22 17:21 40.05557 -104.61352 8789 ft 175 kts 228°
2026-04-22 17:22 40.03728 -104.63402 8395 ft 174 kts 214°
2026-04-22 17:22 40.02716 -104.64239 8222 ft 171 kts 211°
2026-04-22 17:22 40.00582 -104.65340 8071 ft 161 kts 195°
2026-04-22 17:23 39.99464 -104.65616 7936 ft 162 kts 191°
2026-04-22 17:23 39.97197 -104.65832 7651 ft 165 kts 184°
2026-04-22 17:23 39.96049 -104.65846 7460 ft 160 kts 184°
2026-04-22 17:24 39.94973 -104.65872 7327 ft 152 kts 185°
2026-04-22 17:24 39.93914 -104.65900 7107 ft 151 kts 184°
2026-04-22 17:24 39.92867 -104.65903 6909 ft 143 kts 184°
2026-04-22 17:24 39.91911 -104.65923 6684 ft 132 kts 184°
2026-04-22 17:25 39.91001 -104.65944 6437 ft 126 kts 185°
2026-04-22 17:25 39.90168 -104.65940 6257 ft 116 kts 185°
2026-04-22 17:25 39.89369 -104.65971 6069 ft 112 kts 184°
2026-04-22 17:25 39.88612 -104.65973 5933 ft 109 kts 185°
2026-04-22 17:26 39.87848 -104.65994 5760 ft 110 kts 184°
2026-04-22 17:26 39.87085 -104.66001 5629 ft 108 kts 184°
2026-04-22 17:26 39.86338 -104.66008 5472 ft 107 kts 185°
2026-04-22 17:26 39.85628 -104.66019 5394 ft 93 kts 184°
2026-04-22 17:27 39.85066 -104.66029 5402 ft 68 kts 180°
2026-04-22 17:27 39.84644 -104.66033 5408 ft 56 kts 180°
2026-04-22 17:27 39.84259 -104.66061 5419 ft 53 kts 191°
2026-04-22 17:27 39.84019 -104.66205 5419 ft 12 kts 253°
2026-04-22 17:28 39.84019 -104.66316 5418 ft 13 kts 266°
2026-04-22 17:28 39.83947 -104.66399 5413 ft 15 kts 233°
2026-04-22 17:28 39.83932 -104.66521 5410 ft 9 kts 186°
2026-04-22 17:28 39.83925 -104.66522 5410 ft 0 kts 181°